Index of /pmb/codes/nwprod/gfdl.v6.0.2/fix

[ICO]NameLast modifiedSizeDescription

[DIR]Parent Directory  -  
[   ]gfdl_Hdeepgsu.eastatl23-Aug-2013 01:20 490K 
[   ]gfdl_Hdeepgsu.united23-Aug-2013 01:20 793K 
[   ]gfdl_albedo.fall23-Aug-2013 01:20 8.9M 
[   ]gfdl_albedo.spring23-Aug-2013 01:20 8.9M 
[   ]gfdl_albedo.summer23-Aug-2013 01:20 8.9M 
[   ]gfdl_albedo.winter23-Aug-2013 01:20 8.9M 
[   ]gfdl_datainp123-Aug-2013 01:20 51  
[   ]gfdl_datainp1.l4223-Aug-2013 01:20 51  
[   ]gfdl_datainp223-Aug-2013 01:20 118  
[TXT]gfdl_disclaimer.txt23-Aug-2013 01:20 208  
[   ]gfdl_fildef.afos23-Aug-2013 01:20 118  
[   ]gfdl_fildef.sdm23-Aug-2013 01:20 128  
[   ]gfdl_fort.723-Aug-2013 01:20 48K 
[   ]gfdl_fort.7.l4223-Aug-2013 01:20 212K 
[   ]gfdl_gdem.00.ascii23-Aug-2013 01:20 6.6M 
[   ]gfdl_gdem.01.ascii23-Aug-2013 01:20 6.6M 
[   ]gfdl_gdem.02.ascii23-Aug-2013 01:20 6.6M 
[   ]gfdl_gdem.03.ascii23-Aug-2013 01:20 6.6M 
[   ]gfdl_gdem.04.ascii23-Aug-2013 01:20 6.6M 
[   ]gfdl_gdem.05.ascii23-Aug-2013 01:20 6.6M 
[   ]gfdl_gdem.06.ascii23-Aug-2013 01:20 6.6M 
[   ]gfdl_gdem.07.ascii23-Aug-2013 01:20 6.6M 
[   ]gfdl_gdem.08.ascii23-Aug-2013 01:20 6.6M 
[   ]gfdl_gdem.09.ascii23-Aug-2013 01:20 6.6M 
[   ]gfdl_gdem.10.ascii23-Aug-2013 01:20 6.6M 
[   ]gfdl_gdem.11.ascii23-Aug-2013 01:20 6.6M 
[   ]gfdl_gdem.12.ascii23-Aug-2013 01:20 6.6M 
[   ]gfdl_gdem.13.ascii23-Aug-2013 01:20 6.6M 
[   ]gfdl_height23-Aug-2013 01:20 8.9M 
[   ]gfdl_huranal.data23-Aug-2013 01:20 118  
[   ]gfdl_initdata.eastatl.0123-Aug-2013 01:20 8.9M 
[   ]gfdl_initdata.eastatl.0223-Aug-2013 01:20 8.9M 
[   ]gfdl_initdata.eastatl.0323-Aug-2013 01:20 8.9M 
[   ]gfdl_initdata.eastatl.0423-Aug-2013 01:20 8.9M 
[   ]gfdl_initdata.eastatl.0523-Aug-2013 01:20 8.9M 
[   ]gfdl_initdata.eastatl.0623-Aug-2013 01:20 8.9M 
[   ]gfdl_initdata.eastatl.0723-Aug-2013 01:20 8.9M 
[   ]gfdl_initdata.eastatl.0823-Aug-2013 01:20 8.9M 
[   ]gfdl_initdata.eastatl.0923-Aug-2013 01:20 8.9M 
[   ]gfdl_initdata.eastatl.1023-Aug-2013 01:20 8.9M 
[   ]gfdl_initdata.eastatl.1123-Aug-2013 01:20 8.9M 
[   ]gfdl_initdata.eastatl.1223-Aug-2013 01:20 8.9M 
[   ]gfdl_initdata.gdem.united.0123-Aug-2013 01:20 14M 
[   ]gfdl_initdata.gdem.united.0223-Aug-2013 01:20 14M 
[   ]gfdl_initdata.gdem.united.0323-Aug-2013 01:20 14M 
[   ]gfdl_initdata.gdem.united.0423-Aug-2013 01:20 14M 
[   ]gfdl_initdata.gdem.united.0523-Aug-2013 01:20 14M 
[   ]gfdl_initdata.gdem.united.0623-Aug-2013 01:20 14M 
[   ]gfdl_initdata.gdem.united.0723-Aug-2013 01:20 14M 
[   ]gfdl_initdata.gdem.united.0823-Aug-2013 01:20 14M 
[   ]gfdl_initdata.gdem.united.0923-Aug-2013 01:20 14M 
[   ]gfdl_initdata.gdem.united.1023-Aug-2013 01:20 14M 
[   ]gfdl_initdata.gdem.united.1123-Aug-2013 01:20 14M 
[   ]gfdl_initdata.gdem.united.1223-Aug-2013 01:20 14M 
[   ]gfdl_initdata.gdem3.united.0523-Aug-2013 01:20 14M 
[   ]gfdl_initdata.gdem3.united.0623-Aug-2013 01:20 14M 
[   ]gfdl_initdata.gdem3.united.0723-Aug-2013 01:20 14M 
[   ]gfdl_initdata.gdem3.united.0823-Aug-2013 01:20 14M 
[   ]gfdl_initdata.gdem3.united.0923-Aug-2013 01:20 14M 
[   ]gfdl_initdata.gdem3.united.1023-Aug-2013 01:20 14M 
[   ]gfdl_initdata.gdem3.united.1123-Aug-2013 01:20 14M 
[   ]gfdl_initdata.gdem3.united.1223-Aug-2013 01:20 14M 
[   ]gfdl_initdata.levit.united.0523-Aug-2013 01:20 14M 
[   ]gfdl_initdata.levit.united.0623-Aug-2013 01:20 14M 
[   ]gfdl_initdata.levit.united.0723-Aug-2013 01:20 14M 
[   ]gfdl_initdata.levit.united.0823-Aug-2013 01:20 14M 
[   ]gfdl_initdata.levit.united.0923-Aug-2013 01:20 14M 
[   ]gfdl_initdata.levit.united.1023-Aug-2013 01:20 14M 
[   ]gfdl_initdata.levit.united.1123-Aug-2013 01:20 14M 
[   ]gfdl_initdata.levit.united.1223-Aug-2013 01:20 14M 
[   ]gfdl_initdata.united.0123-Aug-2013 01:20 14M 
[   ]gfdl_initdata.united.0223-Aug-2013 01:20 14M 
[   ]gfdl_initdata.united.0323-Aug-2013 01:20 14M 
[   ]gfdl_initdata.united.0423-Aug-2013 01:20 14M 
[   ]gfdl_initdata.united.0523-Aug-2013 01:20 14M 
[   ]gfdl_initdata.united.0623-Aug-2013 01:20 14M 
[   ]gfdl_initdata.united.0723-Aug-2013 01:20 14M 
[   ]gfdl_initdata.united.0823-Aug-2013 01:20 14M 
[   ]gfdl_initdata.united.0923-Aug-2013 01:20 14M 
[   ]gfdl_initdata.united.1023-Aug-2013 01:20 14M 
[   ]gfdl_initdata.united.1123-Aug-2013 01:20 14M 
[   ]gfdl_initdata.united.1223-Aug-2013 01:20 14M 
[   ]gfdl_limit_2nest_dat_x.123-Aug-2013 01:20 259  
[   ]gfdl_limit_2nest_dat_x.523-Aug-2013 01:20 703  
[   ]gfdl_limit_2nest_dat_x.623-Aug-2013 01:20 814  
[   ]gfdl_limit_2nest_dat_y.123-Aug-2013 01:20 111  
[   ]gfdl_limit_2nest_dat_y.623-Aug-2013 01:20 666  
[   ]gfdl_limit_2nest_dat_y.1223-Aug-2013 01:20 1.4K 
[   ]gfdl_limit_2nest_dat_y.1523-Aug-2013 01:20 1.6K 
[   ]gfdl_limit_2nest_dat_y.1623-Aug-2013 01:20 1.7K 
[   ]gfdl_ocean_dat23-Aug-2013 01:20 26  
[   ]gfdl_ocean_readu.dat.0123-Aug-2013 01:20 26M 
[   ]gfdl_ocean_readu.dat.0223-Aug-2013 01:20 26M 
[   ]gfdl_ocean_readu.dat.0323-Aug-2013 01:20 26M 
[   ]gfdl_ocean_readu.dat.0423-Aug-2013 01:20 26M 
[   ]gfdl_ocean_readu.dat.0523-Aug-2013 01:20 26M 
[   ]gfdl_ocean_readu.dat.0623-Aug-2013 01:20 26M 
[   ]gfdl_ocean_readu.dat.0723-Aug-2013 01:20 26M 
[   ]gfdl_ocean_readu.dat.0823-Aug-2013 01:20 26M 
[   ]gfdl_ocean_readu.dat.0923-Aug-2013 01:20 26M 
[   ]gfdl_ocean_readu.dat.1023-Aug-2013 01:20 26M 
[   ]gfdl_ocean_readu.dat.1123-Aug-2013 01:20 26M 
[   ]gfdl_ocean_readu.dat.1223-Aug-2013 01:20 26M 
[   ]gfdl_ocean_spinup.BAYuf23-Aug-2013 01:20 3.4K 
[   ]gfdl_ocean_spinup.FSgsuf23-Aug-2013 01:20 2.4K 
[   ]gfdl_ocean_spinup.SGYREuf23-Aug-2013 01:20 30K 
[   ]gfdl_ocean_spinup_gdem3.dat.0123-Aug-2013 01:20 26M 
[   ]gfdl_ocean_spinup_gdem3.dat.0223-Aug-2013 01:20 26M 
[   ]gfdl_ocean_spinup_gdem3.dat.0323-Aug-2013 01:20 26M 
[   ]gfdl_ocean_spinup_gdem3.dat.0423-Aug-2013 01:20 26M 
[   ]gfdl_ocean_spinup_gdem3.dat.0523-Aug-2013 01:20 26M 
[   ]gfdl_ocean_spinup_gdem3.dat.0623-Aug-2013 01:20 26M 
[   ]gfdl_ocean_spinup_gdem3.dat.0723-Aug-2013 01:20 26M 
[   ]gfdl_ocean_spinup_gdem3.dat.0823-Aug-2013 01:20 26M 
[   ]gfdl_ocean_spinup_gdem3.dat.0923-Aug-2013 01:20 26M 
[   ]gfdl_ocean_spinup_gdem3.dat.1023-Aug-2013 01:20 26M 
[   ]gfdl_ocean_spinup_gdem3.dat.1123-Aug-2013 01:20 26M 
[   ]gfdl_ocean_spinup_gdem3.dat.1223-Aug-2013 01:20 26M 
[   ]gfdl_ocean_spinup_gspath.0123-Aug-2013 01:20 1.7K 
[   ]gfdl_ocean_spinup_gspath.0223-Aug-2013 01:20 1.7K 
[   ]gfdl_ocean_spinup_gspath.0323-Aug-2013 01:20 1.7K 
[   ]gfdl_ocean_spinup_gspath.0423-Aug-2013 01:20 1.7K 
[   ]gfdl_ocean_spinup_gspath.0523-Aug-2013 01:20 1.7K 
[   ]gfdl_ocean_spinup_gspath.0623-Aug-2013 01:20 1.7K 
[   ]gfdl_ocean_spinup_gspath.0723-Aug-2013 01:20 1.7K 
[   ]gfdl_ocean_spinup_gspath.0823-Aug-2013 01:20 1.7K 
[   ]gfdl_ocean_spinup_gspath.0923-Aug-2013 01:20 1.7K 
[   ]gfdl_ocean_spinup_gspath.1023-Aug-2013 01:20 1.7K 
[   ]gfdl_ocean_spinup_gspath.1123-Aug-2013 01:20 1.7K 
[   ]gfdl_ocean_spinup_gspath.1223-Aug-2013 01:20 1.7K 
[   ]gfdl_ocean_topo_and_mask.eastatl_extn23-Aug-2013 01:20 2.4M 
[   ]gfdl_ocean_topo_and_mask.united23-Aug-2013 01:20 1.2M 
[   ]gfdl_pctwat23-Aug-2013 01:20 8.9M 
[   ]gfdl_raw_temp_salin.eastpac.0423-Aug-2013 01:20 17M 
[   ]gfdl_raw_temp_salin.eastpac.0523-Aug-2013 01:20 17M 
[   ]gfdl_raw_temp_salin.eastpac.0623-Aug-2013 01:20 17M 
[   ]gfdl_raw_temp_salin.eastpac.0723-Aug-2013 01:21 17M 
[   ]gfdl_raw_temp_salin.eastpac.0823-Aug-2013 01:21 17M 
[   ]gfdl_raw_temp_salin.eastpac.0923-Aug-2013 01:21 17M 
[   ]gfdl_raw_temp_salin.eastpac.1023-Aug-2013 01:21 17M 
[   ]gfdl_raw_temp_salin.eastpac.1123-Aug-2013 01:21 17M 
[   ]gfdl_raw_temp_salin.eastpac.1223-Aug-2013 01:21 17M 
[TXT]gfdl_tracker_hgt_levs.txt23-Aug-2013 01:21 142  
[TXT]gfdl_tracker_leadtimes.txt23-Aug-2013 01:21 242  
[TXT]gfdl_tracker_tmp_levs.txt23-Aug-2013 01:21 60  
[   ]gfdl_wetness23-Aug-2013 01:21 8.9M 
[   ]gfdl_znot23-Aug-2013 01:21 8.9M 
[TXT]global_siglevel.l64.txt23-Aug-2013 01:21 572